This demonstration page uses our WeatherBlox Daily Observations layout. Learn more.

Left ArrowRight Arrow

Hourly Observations for April 30, 2021

Temp ( °F °C ) Dew Point ( °F °C ) Humidity (%) Winds ( mph kmh ) Pressure ( in mb ) Visibility ( mi km ) Precip ( " mm )
12:53 am 00:53 Cloudy 68 20 65 18.3 90 90 SW 6 9 29.98 1015 10 16 0.03 0.76
1:53 am 01:53 Partly Cloudy 67 19.4 66 18.9 97 97 WSW 3 6 29.96 1015 10 16 0.00 0.00
2:53 am 02:53 Cloudy 68 20 66 18.9 93 93 W 9 15 29.96 1015 10 16 0.00 0.00
3:53 am 03:53 Cloudy 68 20 63 17.2 84 84 NW 8 13 29.97 1015 10 16 0.00 0.00
4:53 am 04:53 Partly Cloudy 66 18.9 62 16.7 87 87 NW 5 7 29.98 1015 10 16 0.00 0.00
5:53 am 05:53 Mostly Clear 64 17.8 60 15.6 87 87 NW 5 7 29.97 1015 10 16 0.00 0.00
6:53 am 06:53 Sunny 64 17.8 58 14.4 81 81 NNW 8 13 29.98 1015 10 16 0.00 0.00
7:53 am 07:53 Sunny 64 17.8 57 13.9 78 78 NNW 9 15 30.01 1016 10 16 0.00 0.00
8:53 am 08:53 Sunny 64 17.8 56 13.3 75 75 NNW 8 13 30.03 1017 10 16 0.00 0.00
9:53 am 09:53 Sunny 67 19.4 55 12.8 66 66 NNW 7 11 30.05 1018 10 16 0.00 0.00
10:53 am 10:53 Sunny 69 20.6 53 11.7 57 57 N 9 15 30.06 1018 10 16 0.00 0.00
11:53 am 11:53 Sunny 69 20.6 47 8.3 45 45 N 9 15 30.09 1019 10 16 0.00 0.00
12:53 pm 12:53 Sunny 69 20.6 46 7.8 44 44 NNW 12 19 30.09 1019 10 16 0.00 0.00
1:53 pm 13:53 Sunny 71 21.7 47 8.3 42 42 WNW 10 17 30.06 1018 10 16 0.00 0.00
2:53 pm 14:53 Sunny 72 22.2 46 7.8 40 40 WNW 9 15 30.05 1018 10 16 0.00 0.00
3:53 pm 15:53 Sunny 72 22.2 48 8.9 43 43 NW 14 22 30.03 1017 10 16 0.00 0.00
4:53 pm 16:53 Sunny 73 22.8 49 9.4 43 43 WNW 8 13 30.02 1017 10 16 0.00 0.00
5:53 pm 17:53 Sunny 73 22.8 47 8.3 40 40 W 9 15 30.02 1017 10 16 0.00 0.00
6:53 pm 18:53 Sunny 73 22.8 49 9.4 43 43 WNW 9 15 30.01 1016 10 16 0.00 0.00
7:53 pm 19:53 Sunny 70 21.1 49 9.4 47 47 WNW 6 9 30.01 1016 10 16 0.00 0.00
8:53 pm 20:53 Clear 67 19.4 50 10 55 55 W 5 7 30.03 1017 10 16 0.00 0.00
9:53 pm 21:53 Clear 63 17.2 50 10 63 63 Calm 30.04 1017 10 16 0.00 0.00
10:53 pm 22:53 Clear 63 17.2 49 9.4 60 60 NNW 3 6 30.05 1018 10 16 0.00 0.00
11:53 pm 23:53 Clear 64 17.8 44 6.7 48 48 NNW 7 11 30.03 1017 10 16 0.00 0.00

Powered by AerisWeather